Location: Sawmill Trailhead
(33.5800°N, 116.4497°W)
Time: 15:17:47
(UTC-07:00)

Amateur Radio Satellites - All Passes

Search period start: 16 October 2017 14:47
Search period end: 17 October 2017 14:47
Location: Sawmill Trailhead, 33.5800°N, 116.4497°W

Satellite Date Start Highest point End Downlink Frequencies (MHz)
Time Altitude Azimuth
BEESAT 16 Oct 14:52:16 14:53:45 11° 92° (E) 14:55:14 436.000
50 SAT 16 Oct 14:53:59 14:56:25 19° 288° (WNW) 14:58:50 437.505
UKube-1 16 Oct 15:09:59 15:14:03 42° 287° (WNW) 15:18:07 .
AO-7 16 Oct 15:11:43 15:19:57 72° 70° (ENE) 15:28:11 .
Gurwin Techsat 1B 16 Oct 15:18:16 15:20:50 14° 267° (W) 15:23:24 435.225
ITAMSAT 1 16 Oct 15:41:53 15:47:03 87° 75° (ENE) 15:52:17 435.822/435.867
Tancredo 1 16 Oct 16:04:41 16:05:22 11° 35° (NE) 16:06:03 437.200
SRMSAT 16 Oct 16:06:30 16:07:34 10° 197° (SSW) 16:08:37 437.500
ITUPSAT 1 16 Oct 16:08:29 16:13:17 85° 98° (E) 16:18:05 437.325
SO-50 16 Oct 16:16:00 16:19:35 22° 52° (NE) 16:23:11 436.795
CUBESAT XI-V 16 Oct 16:20:52 16:24:43 26° 96° (E) 16:28:32 437.345
MOZHAYETS 4 16 Oct 16:20:55 16:25:25 56° 285° (WNW) 16:29:51
BEESAT 16 Oct 16:27:07 16:31:48 58° 286° (WNW) 16:36:28 436.000
DOVE 4 16 Oct 16:38:28 16:42:00 28° 71° (ENE) 16:45:37 437.250
KKS-1 16 Oct 16:45:06 16:46:49 12° 93° (E) 16:48:33 437.445
XW-2C 16 Oct 17:05:19 17:06:25 11° 68° (ENE) 17:07:31 145.795 - 145.815
AO-7 16 Oct 17:07:30 17:13:13 20° 265° (W) 17:18:59 .
CUTE-I 16 Oct 17:21:16 17:25:14 22° 67° (ENE) 17:29:12 437.470
STARS 16 Oct 17:29:28 17:32:02 15° 94° (E) 17:34:35 437.465
nSIGHT-1 16 Oct 17:30:16 17:32:05 14° 31° (NNE) 17:33:53 .
Tancredo 1 16 Oct 17:36:10 17:37:38 18° 229° (SW) 17:39:06 437.200
HO-68 16 Oct 17:42:53 17:47:38 19° 61° (ENE) 17:52:23 435.675
LilacSat-2 16 Oct 17:47:17 17:50:56 43° 75° (ENE) 17:54:35 437.200
XW-2F 16 Oct 17:51:25 17:55:00 41° 75° (ENE) 17:58:35 145.980 - 146.000
ISS 16 Oct 17:51:47 17:54:13 19° 34° (NNE) 17:56:39 437.550
SO-50 16 Oct 17:55:51 18:00:05 35° 247° (WSW) 18:04:21 436.795
KAITUO 1B 16 Oct 17:57:15 18:00:43 37° 74° (ENE) 18:04:12 145.475/437.950
CUBESAT XI-V 16 Oct 17:58:16 18:01:55 24° 290° (WNW) 18:05:35 437.345
XW-2D 16 Oct 18:00:05 18:03:52 63° 77° (ENE) 18:07:38 145.860 - 145.880
XW-2B 16 Oct 18:13:21 18:17:09 87° 256° (WSW) 18:20:59 145.730 - 145.750
DOVE 4 16 Oct 18:17:01 18:19:43 17° 266° (W) 18:22:29 437.250
NUDT-PHONESAT 16 Oct 18:18:23 18:22:06 74° 77° (ENE) 18:25:49 437.300
KKS-1 16 Oct 18:19:15 18:23:35 49° 286° (WNW) 18:27:53 437.445
XW-2C 16 Oct 18:36:35 18:40:11 39° 261° (W) 18:43:47 145.795 - 145.815
PCSat 16 Oct 18:38:19 18:43:40 59° 62° (ENE) 18:48:59 145.827
UWE-3 16 Oct 18:54:51 18:57:48 17° 68° (ENE) 19:00:47 435.000/436.395/437.385
CUTE-I 16 Oct 19:00:02 19:04:58 39° 262° (W) 19:09:55 437.470
STARS 16 Oct 19:04:21 19:08:27 38° 288° (WNW) 19:12:33 437.465
nSIGHT-1 16 Oct 19:05:27 19:08:36 55° 226° (SW) 19:11:44 .
XW-2A 16 Oct 19:25:06 19:28:17 37° 75° (ENE) 19:31:29 145.665 - 145.685
CUTE 1.7 + AOD 2 16 Oct 19:26:07 19:30:19 62° 260° (W) 19:34:31 437.475
HO-68 16 Oct 19:27:29 19:34:36 71° 257° (WSW) 19:41:47 435.675
ISS 16 Oct 19:27:45 19:30:46 35° 229° (SW) 19:33:48 437.550
Oscar 11 16 Oct 19:28:26 19:29:41 11° 66° (ENE) 19:30:56 .
KAITUO 1B 16 Oct 19:34:07 19:34:49 10° 267° (W) 19:35:30 145.475/437.950
SEEDS 16 Oct 19:41:33 19:45:43 69° 260° (W) 19:49:53 437.485
CUBEBUG 2 16 Oct 19:42:14 19:46:48 77° 260° (W) 19:51:30 437.445
AO-73 16 Oct 19:57:18 20:01:31 39° 73° (ENE) 20:05:46 145.935
FO-29 16 Oct 20:03:21 20:06:14 13° 92° (E) 20:09:12 435.910
ZACube-1 16 Oct 20:16:21 20:20:53 75° 77° (ENE) 20:25:28 437.345
AAUSAT CUBESAT 2 16 Oct 20:18:25 20:22:27 58° 260° (W) 20:26:31 437.432
STRAND 1 16 Oct 20:21:00 20:26:11 84° 284° (WNW) 20:31:20 437.568
PCSat 16 Oct 20:23:35 20:26:29 15° 256° (WSW) 20:29:22 145.827
UWE-3 16 Oct 20:29:36 20:33:51 39° 262° (W) 20:38:14 435.000/436.395/437.385
O/OREOS (USA 219) 16 Oct 20:33:42 20:37:10 22° 101° (E) 20:40:39 437.305
DELFI C3 16 Oct 20:51:20 20:54:06 19° 70° (ENE) 20:56:54 145.870
YUBILEINY 16 Oct 20:55:29 21:04:08 57° 80° (E) 21:12:44 435.215
Oscar 11 16 Oct 21:01:04 21:05:18 53° 260° (W) 21:09:33 .
Max Valier Satellite 16 Oct 21:03:13 21:05:49 18° 71° (ENE) 21:08:25 145.860
EO-88 16 Oct 21:04:02 21:05:39 13° 69° (ENE) 21:07:17 145.990 - 145.960
BEESAT 3 16 Oct 21:26:41 21:28:55 15° 51° (NE) 21:31:08 437.485
TIGRISAT 16 Oct 21:32:10 21:34:21 13° 92° (E) 21:36:29 435.000
AO-73 16 Oct 21:35:02 21:37:49 16° 267° (W) 21:40:37 145.935
FO-29 16 Oct 21:44:45 21:51:39 88° 105° (ESE) 21:59:18 435.910
PRISM 16 Oct 22:02:02 22:03:21 11° 93° (E) 22:04:40 437.425
O/OREOS (USA 219) 16 Oct 22:12:28 22:16:22 28° 296° (WNW) 22:20:18 437.305
DELFI C3 16 Oct 22:25:32 22:28:40 23° 264° (W) 22:31:49 145.870
ESTCUBE 1 16 Oct 22:26:57 22:29:25 15° 67° (ENE) 22:31:52 437.505/2401.250
EO-88 16 Oct 22:35:42 22:38:58 31° 262° (W) 22:42:15 145.990 - 145.960
Max Valier Satellite 16 Oct 22:36:28 22:39:26 22° 264° (W) 22:42:25 145.860
BEESAT 2 16 Oct 22:36:40 22:40:00 24° 54° (NE) 22:43:18 435.950
UNISAT 6 16 Oct 22:50:42 22:55:18 65° 284° (WNW) 22:59:46 437.425
YUBILEINY 16 Oct 22:53:26 23:00:15 26° 276° (W) 23:07:06 435.215
BEESAT 3 16 Oct 23:02:57 23:06:37 39° 247° (WSW) 23:10:14 437.485
TIGRISAT 16 Oct 23:06:48 23:11:14 46° 286° (WNW) 23:15:33 435.000
AO-85 16 Oct 23:17:31 23:22:05 55° 60° (ENE) 23:26:58 145.980
QB50P2 16 Oct 23:27:34 23:28:34 11° 92° (E) 23:29:35 145.880/145.840
AIST 2D 16 Oct 23:28:16 23:31:18 28° 98° (E) 23:34:19 435.315
FO-29 16 Oct 23:32:19 23:35:59 15° 297° (WNW) 23:39:48 435.910
PRISM 16 Oct 23:34:52 23:38:46 43° 286° (WNW) 23:42:41 437.425
NANOSAT C BR1 16 Oct 23:35:27 23:36:00 10° 92° (E) 23:36:33 145.865
LO-87 16 Oct 23:38:04 23:41:28 43° 261° (W) 23:44:55 145.935 - 145.965
DUCHIFAT 1 16 Oct 23:47:11 23:49:08 13° 93° (E) 23:51:05 145.980
SPROUT 16 Oct 23:54:54 23:58:41 32° 72° (ENE) 00:02:30 437.525
ESTCUBE 1 17 Oct 00:01:31 00:05:47 43° 261° (W) 00:10:05 437.505/2401.250
VELOX 1 17 Oct 00:09:02 00:12:55 32° 72° (ENE) 00:16:50 145.980
RS-15 17 Oct 00:13:25 00:24:26 42° 106° (ESE) 00:35:31 29.354- 29.394
BEESAT 2 17 Oct 00:14:27 00:17:35 22° 249° (WSW) 00:20:40 435.950
EO-79 17 Oct 00:36:46 00:41:03 75° 102° (ESE) 00:45:16 145.935-145.965
POLYITAN 1 17 Oct 00:40:20 00:44:38 83° 104° (ESE) 00:48:52 437.675
AO-85 17 Oct 00:59:38 01:02:08 14° 251° (WSW) 01:04:43 145.980
QB50P2 17 Oct 01:00:27 01:04:34 48° 286° (WNW) 01:08:39 145.880/145.840
AIST 2D 17 Oct 01:02:50 01:04:09 12° 291° (WNW) 01:05:29 435.315
NANOSAT C BR1 17 Oct 01:07:49 01:11:56 50° 285° (WNW) 01:16:01 145.865
50 SAT 17 Oct 01:17:39 01:20:50 56° 76° (ENE) 01:24:03 437.505
DUCHIFAT 1 17 Oct 01:20:57 01:24:56 40° 287° (WNW) 01:28:52 145.980
DX 1 17 Oct 01:27:28 01:31:44 62° 75° (ENE) 01:36:00 434.975-435.025
SPROUT 17 Oct 01:31:50 01:34:35 17° 266° (W) 01:37:23 437.525
M-CUBED/EXP-1 PRIME 17 Oct 01:33:18 01:35:42 17° 102° (ESE) 01:38:11 437.505
BUGSAT 1 17 Oct 01:44:05 01:48:20 85° 102° (ESE) 01:52:30 437.445
VELOX 1 17 Oct 01:46:29 01:49:23 17° 265° (W) 01:52:18 145.980
Oscar 19 17 Oct 01:55:31 02:00:27 47° 100° (E) 02:05:21 437.125/150
Gurwin Techsat 1B 17 Oct 01:56:00 02:00:44 32° 98° (E) 02:05:27 435.225
UKube-1 17 Oct 01:59:44 02:04:01 87° 257° (WSW) 02:08:20 .
RS-15 17 Oct 02:24:37 02:36:32 55° 306° (NW) 02:48:34 29.354- 29.394
M-CUBED/EXP-1 PRIME 17 Oct 03:07:10 03:10:02 23° 292° (WNW) 03:13:03 437.505
ITUPSAT 1 17 Oct 03:10:54 03:15:37 62° 75° (ENE) 03:20:23 437.325
MOZHAYETS 4 17 Oct 03:18:07 03:22:45 84° 79° (E) 03:27:25
AO-7 17 Oct 03:18:38 03:25:39 30° 98° (E) 03:32:37 .
CUBESAT XI-V 17 Oct 03:20:58 03:23:58 17° 68° (ENE) 03:26:56 437.345
BEESAT 17 Oct 03:29:00 03:33:47 81° 257° (WSW) 03:38:35 436.000
Oscar 19 17 Oct 03:36:07 03:39:20 17° 294° (WNW) 03:42:33 437.125/150
Gurwin Techsat 1B 17 Oct 03:36:09 03:40:29 26° 291° (WNW) 03:44:49 435.225
NO-84 17 Oct 03:50:18 03:54:34 65° 129° (SE) 03:58:48 435.350 FM
ITAMSAT 1 17 Oct 03:58:57 04:03:55 43° 99° (E) 04:08:51 435.822/435.867
DOVE 4 17 Oct 04:41:31 04:43:57 13° 93° (E) 04:46:25 437.250
RS-15 17 Oct 04:45:22 04:52:44 17° 334° (NNW) 05:00:05 29.354- 29.394
ITUPSAT 1 17 Oct 04:52:48 04:53:46 11° 268° (W) 04:54:45 437.325
CUBESAT XI-V 17 Oct 04:56:39 05:00:58 38° 261° (W) 05:05:18 437.345
AO-7 17 Oct 05:10:37 05:18:34 52° 293° (WNW) 05:26:31 .
KKS-1 17 Oct 05:12:44 05:17:09 90° 256° (WSW) 05:21:36 437.445
NO-84 17 Oct 05:29:24 05:32:18 17° 324° (NW) 05:35:10 435.350 FM
ITAMSAT 1 17 Oct 05:39:19 05:43:00 20° 294° (WNW) 05:46:40 435.822/435.867
CUTE-I 17 Oct 05:44:02 05:45:32 11° 92° (E) 05:47:03 437.470
XW-2B 17 Oct 05:51:32 05:53:06 12° 93° (E) 05:54:39 145.730 - 145.750
STARS 17 Oct 05:56:12 06:00:33 74° 258° (WSW) 06:04:57 437.465
XW-2C 17 Oct 06:13:09 06:16:16 25° 97° (E) 06:19:22 145.795 - 145.815
DOVE 4 17 Oct 06:16:56 06:21:47 57° 285° (WNW) 06:26:51 437.250
JUGNU 17 Oct 06:23:06 06:24:22 11° 164° (SSE) 06:25:39 437.505
SO-50 17 Oct 06:27:34 06:30:12 15° 109° (ESE) 06:32:48 436.795
O/OREOS (USA 219) 17 Oct 06:47:11 06:50:51 23° 63° (ENE) 06:54:28 437.305
LilacSat-2 17 Oct 06:58:13 07:01:57 66° 282° (WNW) 07:05:39 437.200
HO-68 17 Oct 07:00:19 07:06:22 28° 97° (E) 07:12:21 435.675
XW-2F 17 Oct 07:00:56 07:04:39 71° 282° (WNW) 07:08:20 145.980 - 146.000
KAITUO 1B 17 Oct 07:05:34 07:09:15 82° 282° (WNW) 07:12:55 145.475/437.950
RS-15 17 Oct 07:08:22 07:13:01 13° 13° (NNE) 07:17:36 29.354- 29.394
XW-2D 17 Oct 07:10:27 07:14:02 45° 285° (WNW) 07:17:36 145.860 - 145.880
CUTE 1.7 + AOD 2 17 Oct 07:15:10 07:18:49 28° 97° (E) 07:22:27 437.475
CUTE-I 17 Oct 07:20:38 07:25:59 71° 285° (WNW) 07:31:20 437.470
XW-2B 17 Oct 07:23:59 07:27:19 31° 286° (WNW) 07:30:39 145.730 - 145.750
NUDT-PHONESAT 17 Oct 07:26:08 07:29:37 42° 285° (WNW) 07:33:03 437.300
SEEDS 17 Oct 07:29:37 07:33:04 25° 96° (E) 07:36:30 437.485
STRAND 1 17 Oct 07:32:39 07:37:46 89° 254° (WSW) 07:42:56 437.568
PCSat 17 Oct 07:35:56 07:38:13 13° 103° (ESE) 07:40:31 145.827
CUBEBUG 2 17 Oct 07:37:32 07:41:39 31° 97° (E) 07:45:39 437.445
XW-2C 17 Oct 07:47:52 07:50:12 16° 290° (WNW) 07:52:32 145.795 - 145.815
FO-29 17 Oct 07:55:44 07:59:23 20° 66° (ENE) 08:03:08 435.910
AAUSAT CUBESAT 2 17 Oct 08:04:35 08:08:06 27° 97° (E) 08:11:36 437.432
SO-50 17 Oct 08:06:00 08:10:14 42° 303° (WNW) 08:14:31 436.795
JUGNU 17 Oct 08:08:44 08:12:40 19° 173° (S) 08:16:35 437.505
ZACube-1 17 Oct 08:09:48 08:12:56 19° 94° (E) 08:16:01 437.345
XW-2A 17 Oct 08:22:44 08:26:05 73° 101° (E) 08:29:23 145.665 - 145.685
UWE-3 17 Oct 08:23:00 08:27:28 58° 100° (E) 08:31:46 435.000/436.395/437.385
O/OREOS (USA 219) 17 Oct 08:26:17 08:30:10 27° 258° (WSW) 08:34:02 437.305
HO-68 17 Oct 08:47:22 08:54:09 46° 292° (WNW) 09:00:56 435.675
CUTE 1.7 + AOD 2 17 Oct 08:51:31 08:54:24 18° 290° (WNW) 08:57:16 437.475
Oscar 11 17 Oct 08:52:16 08:56:15 36° 98° (E) 09:00:11 .
SEEDS 17 Oct 09:05:29 09:08:34 20° 290° (WNW) 09:11:39 437.485
CUBEBUG 2 17 Oct 09:14:34 09:17:59 21° 291° (WNW) 09:21:21 437.445
PCSat 17 Oct 09:15:35 09:20:57 66° 297° (WNW) 09:26:22 145.827
RS-15 17 Oct 09:20:16 09:30:54 35° 46° (NE) 09:40:58 29.354- 29.394
AO-73 17 Oct 09:25:09 09:29:26 56° 284° (WNW) 09:33:36 145.935
Tancredo 1 17 Oct 09:27:28 09:29:00 20° 321° (NW) 09:30:31 437.200
FO-29 17 Oct 09:39:22 09:44:09 38° 262° (W) 09:49:07 435.910
AAUSAT CUBESAT 2 17 Oct 09:40:27 09:43:19 19° 290° (WNW) 09:46:11 437.432
UNISAT 6 17 Oct 09:44:43 09:49:15 66° 76° (ENE) 09:53:53 437.425
ZACube-1 17 Oct 09:45:25 09:49:12 28° 289° (WNW) 09:52:52 437.345
YUBILEINY 17 Oct 09:50:54 09:59:31 74° 93° (E) 10:08:12 435.215
JUGNU 17 Oct 09:56:48 10:01:00 20° 183° (S) 10:05:12 437.505
TIGRISAT 17 Oct 10:00:29 10:05:03 90° 249° (WSW) 10:09:45 435.000
UWE-3 17 Oct 10:02:06 10:03:18 11° 295° (WNW) 10:04:30 435.000/436.395/437.385
nSIGHT-1 17 Oct 10:04:38 10:07:20 26° 130° (SE) 10:10:03 .
DELFI C3 17 Oct 10:05:11 10:09:04 53° 100° (E) 10:12:56 145.870
EO-88 17 Oct 10:08:02 10:11:07 26° 97° (E) 10:14:10 145.990 - 145.960
Max Valier Satellite 17 Oct 10:09:25 10:12:54 40° 99° (E) 10:16:20 145.860
PRISM 17 Oct 10:19:30 10:23:30 71° 76° (ENE) 10:27:32 437.425
SRMSAT 17 Oct 10:25:25 10:29:03 17° 169° (S) 10:32:43 437.500
ISS 17 Oct 10:28:13 10:31:18 43° 132° (SE) 10:34:25 437.550
Oscar 11 17 Oct 10:29:28 10:32:02 16° 292° (WNW) 10:34:35 .
LO-87 17 Oct 11:09:21 11:11:52 18° 95° (E) 11:14:22 145.935 - 145.965
EO-79 17 Oct 11:25:06 11:28:52 31° 72° (ENE) 11:32:39 145.935-145.965
POLYITAN 1 17 Oct 11:28:42 11:32:35 35° 73° (ENE) 11:36:29 437.675
AIST 2D 17 Oct 11:30:39 11:34:08 63° 259° (W) 11:37:38 435.315
RS-15 17 Oct 11:32:30 11:44:03 66° 248° (WSW) 11:55:00 29.354- 29.394
nSIGHT-1 17 Oct 11:41:00 11:43:34 22° 324° (NW) 11:46:10 .
EO-88 17 Oct 11:42:27 11:44:29 14° 290° (WNW) 11:46:31 145.990 - 145.960
JUGNU 17 Oct 11:46:14 11:49:19 15° 193° (SSW) 11:52:25 437.505
QB50P2 17 Oct 11:48:19 11:52:32 70° 76° (ENE) 11:56:48 145.880/145.840
YUBILEINY 17 Oct 11:51:16 11:57:05 19° 291° (WNW) 12:02:58 435.215
NANOSAT C BR1 17 Oct 11:55:09 11:59:21 66° 76° (ENE) 12:03:35 145.865
ESTCUBE 1 17 Oct 11:57:37 12:01:59 51° 100° (E) 12:06:20 437.505/2401.250
NO-84 17 Oct 12:04:50 12:08:24 63° 47° (NE) 12:11:38 435.350 FM
ISS 17 Oct 12:05:45 12:07:56 17° 328° (NNW) 12:10:07 437.550
DUCHIFAT 1 17 Oct 12:07:50 12:12:03 82° 77° (ENE) 12:16:19 145.980
SRMSAT 17 Oct 12:13:11 12:17:34 21° 179° (S) 12:21:58 437.500
BEESAT 2 17 Oct 12:26:26 12:27:13 10° 107° (ESE) 12:28:01 435.950
BUGSAT 1 17 Oct 12:29:39 12:33:20 32° 72° (ENE) 12:37:06 437.445
LO-87 17 Oct 12:42:23 12:45:09 21° 289° (WNW) 12:47:55 145.935 - 145.965
BEESAT 3 17 Oct 12:47:47 12:51:45 85° 117° (ESE) 12:55:47 437.485
EO-79 17 Oct 13:01:52 13:04:38 17° 266° (W) 13:07:26 145.935-145.965
POLYITAN 1 17 Oct 13:05:53 13:08:24 15° 266° (W) 13:10:58 437.675
Oscar 19 17 Oct 13:08:15 13:13:11 46° 72° (ENE) 13:18:07 437.125/150
Gurwin Techsat 1B 17 Oct 13:13:08 13:17:54 35° 70° (ENE) 13:22:41 435.225
SPROUT 17 Oct 13:19:30 13:23:48 74° 283° (WNW) 13:28:03 437.525
DX 1 17 Oct 13:20:57 13:23:24 15° 94° (E) 13:25:51 434.975-435.025
AO-85 17 Oct 13:28:51 13:32:29 40° 114° (ESE) 13:36:10 145.980
ESTCUBE 1 17 Oct 13:36:30 13:38:17 12° 294° (WNW) 13:40:02 437.505/2401.250
VELOX 1 17 Oct 13:38:30 13:42:54 69° 285° (WNW) 13:47:19 145.980
M-CUBED/EXP-1 PRIME 17 Oct 13:49:07 13:52:24 35° 256° (WSW) 13:55:32 437.505
UKube-1 17 Oct 13:51:22 13:54:36 20° 96° (E) 13:57:50 .
BEESAT 2 17 Oct 14:00:35 14:04:27 48° 302° (WNW) 14:08:22 435.950
SRMSAT 17 Oct 14:02:13 14:06:06 18° 189° (S) 14:09:59 437.500
BUGSAT 1 17 Oct 14:06:12 14:08:43 16° 266° (W) 14:11:17 437.445
50 SAT 17 Oct 14:12:25 14:15:44 84° 281° (W) 14:19:01 437.505
AO-7 17 Oct 14:13:42 14:20:34 30° 61° (ENE) 14:27:26 .
